User: anonymous   Login
Location: Unspecified
(0.0000°N, 0.0000°E)
Time: 14:04:25
(UTC+00:00)
Language:

Tiangong 1 - Orbit

View from above orbital plane
View from above orbital plane
View from above satellite
View from above satellite

Ground track
Ground track

The orbit data is extracted from the following two-line orbital elements,

1 37820U 11053A   17325.20509259  .00053546  93192-5  16016-3 0  9999
2 37820  42.7555 310.8232 0017702 125.4918  48.9216 15.92031265352875
Epoch (UTC): 21 November 2017 04:55:20
Eccentricity: 0.0017702
inclination: 42.7555°
perigee height: 285 km
apogee height: 308 km
right ascension of ascending node: 310.8232°
argument of perigee: 125.4918°
revolutions per day: 15.92031265
mean anomaly at epoch: 48.9216°
orbit number at epoch: 35287

The dashed part of the orbit path shows where the satellite is in the earth's shadow,  

DLR